First I — 3ESJ5 — position and weather

sailwx.info

Track history (hours):
 
Tides and Currents Weather Stations Pressure Air Temp Water Temp Dewpoint Dewpoint Depression Visibility Wind Speed Wind Dir Waves Ship Positions

First I

Last reported at 2014-Oct-30 12:14 UTC. Time now 2014-Oct-31 21:34 UTC.
Position N 46°39' W 125°10'.

Length 190 m; draft 12.2 m.

Type: Cargo ship. MMSI: 370317000.

Date/timePositionNaut miles runAvg speedWind from/ knotsBaromVisibWave heightAir tempDewpointWater temp
2014-Oct-30 12:14N 46°39' W 125°10'710.2
2014-Oct-30 11:33N 46°35' W 125°02'1110.6
2014-Oct-30 10:33N 46°29' W 124°49'1110.8
2014-Oct-30 09:33N 46°23' W 124°36'1110.6
2014-Oct-30 08:33N 46°17' W 124°23'1010.3
2014-Oct-30 07:34N 46°11' W 124°11'8 8.1
2014-Oct-30 06:34N 46°15' W 124°01'9 9.4
2014-Oct-30 05:33N 46°12' W 123°48'1211.7
2014-Oct-30 04:33N 46°16' W 123°32'10 9.8
2014-Oct-30 03:33N 46°09' W 123°22'1110.9
2014-Oct-30 02:33N 46°11' W 123°07'1110.7
2014-Oct-30 01:33N 46°05' W 122°54'1010.0
2014-Oct-30 00:33N 45°56' W 122°48'1110.9
2014-Oct-29 23:33N 45°45' W 122°46'9 9.0
2014-Oct-29 22:33N 45°36' W 122°47'6 5.6
2014-Oct-29 21:32N 45°32' W 122°41'0 0.1
2014-Oct-29 20:23N 45°32' W 122°41'0 0.0
2014-Oct-29 19:23N 45°32' W 122°41'0 0.0
2014-Oct-29 18:29N 45°32' W 122°41'0 0.0
2014-Oct-29 17:29N 45°32' W 122°41'0 0.0
2014-Oct-29 16:29N 45°32' W 122°41'0 0.0
2014-Oct-29 15:29N 45°32' W 122°41'0 0.0
2014-Oct-29 14:29N 45°32' W 122°41'0 0.0
2014-Oct-29 13:29N 45°32' W 122°41'0 0.0
2014-Oct-29 12:29N 45°32' W 122°41'0 0.0
2014-Oct-29 11:29N 45°32' W 122°41'0 0.0
2014-Oct-29 10:32N 45°32' W 122°41'0 0.0
2014-Oct-29 09:26N 45°32' W 122°41'0 0.0
2014-Oct-29 08:32N 45°32' W 122°41'0 0.0
2014-Oct-29 07:32N 45°32' W 122°41'0 0.0
2014-Oct-29 06:32N 45°32' W 122°41'0 0.0
2014-Oct-29 05:14N 45°32' W 122°41'0 0.0
2014-Oct-29 04:32N 45°32' W 122°41'0 0.0
2014-Oct-29 03:32N 45°32' W 122°41'0 0.0
2014-Oct-29 02:32N 45°32' W 122°41'0 0.0
2014-Oct-29 01:32N 45°32' W 122°41'0 0.0
2014-Oct-28 14:21N 45°32' W 122°41'0 0.0
2014-Oct-28 13:33N 45°32' W 122°41'0 0.0
2014-Oct-28 12:33N 45°32' W 122°41'0 0.0
2014-Oct-28 11:33N 45°32' W 122°41'0 0.0
2014-Oct-28 10:27N 45°32' W 122°41'0 0.0
2014-Oct-28 09:33N 45°32' W 122°41'0 0.0
2014-Oct-28 08:33N 45°32' W 122°41'0 0.0
2014-Oct-28 07:33N 45°32' W 122°41'0 0.0
2014-Oct-28 06:33N 45°32' W 122°41'0 0.0
2014-Oct-28 05:33N 45°32' W 122°41'0 0.0
2014-Oct-28 04:30N 45°32' W 122°41'0 0.0
2014-Oct-28 03:30N 45°32' W 122°41'0 0.0
2014-Oct-28 02:33N 45°32' W 122°41'0 0.0
2014-Oct-28 01:33N 45°32' W 122°41'0 0.0
2014-Oct-28 00:33N 45°32' W 122°41'0 0.0
2014-Oct-27 23:30N 45°32' W 122°41'0 0.0
2014-Oct-27 22:33N 45°32' W 122°41'0 0.0
2014-Oct-27 21:33N 45°32' W 122°41'0 0.0
2014-Oct-27 20:33N 45°32' W 122°41'0 0.0
2014-Oct-27 19:27N 45°32' W 122°41'0 0.0
2014-Oct-27 18:33N 45°32' W 122°41'0 0.0
2014-Oct-27 17:30N 45°32' W 122°41'0 0.0
2014-Oct-27 16:33N 45°32' W 122°41'0 0.0
2014-Oct-27 15:30N 45°32' W 122°41'0 0.0
2014-Oct-27 14:30N 45°32' W 122°41'0 0.0
2014-Oct-27 13:33N 45°32' W 122°41'0 0.0
2014-Oct-27 12:33N 45°32' W 122°41'0 0.0
2014-Oct-27 11:33N 45°32' W 122°41'0 0.0
2014-Oct-27 10:33N 45°32' W 122°41'0 0.0
2014-Oct-27 09:33N 45°32' W 122°41'0 0.0
2014-Oct-27 08:33N 45°32' W 122°41'0 0.0
2014-Oct-27 07:33N 45°32' W 122°41'0 0.0
2014-Oct-27 06:33N 45°32' W 122°41'0 0.0
2014-Oct-27 05:30N 45°32' W 122°41'0 0.0
2014-Oct-27 04:33N 45°32' W 122°41'0 0.0
2014-Oct-27 03:33N 45°32' W 122°41'0 0.0
2014-Oct-27 02:33N 45°32' W 122°41'0 0.0
2014-Oct-27 01:33N 45°32' W 122°41'0 0.0
2014-Oct-27 00:33N 45°32' W 122°41'0 0.0
2014-Oct-26 23:33N 45°32' W 122°41'0 0.0
2014-Oct-26 22:33N 45°32' W 122°41'0 0.0
2014-Oct-26 21:33N 45°32' W 122°41'0 0.0
2014-Oct-26 20:33N 45°32' W 122°41'0 0.0
2014-Oct-26 19:33N 45°32' W 122°41'0 0.0
2014-Oct-26 18:30N 45°32' W 122°41'0 0.0
2014-Oct-26 17:30N 45°32' W 122°41'0 0.0
2014-Oct-26 16:33N 45°32' W 122°41'0 0.0
2014-Oct-26 15:33N 45°32' W 122°41'0 0.0
2014-Oct-26 14:33N 45°32' W 122°41'0 0.0
2014-Oct-26 13:33N 45°32' W 122°41'0 0.0
2014-Oct-26 12:30N 45°32' W 122°41'0 0.0
2014-Oct-26 11:33N 45°32' W 122°41'0 0.0
2014-Oct-26 10:33N 45°32' W 122°41'0 0.0
2014-Oct-26 09:33N 45°32' W 122°41'0 0.0
2014-Oct-26 08:33N 45°32' W 122°41'0 0.0
2014-Oct-26 07:33N 45°32' W 122°41'0 0.0
2014-Oct-26 06:33N 45°32' W 122°41'0 0.0
2014-Oct-26 05:30N 45°32' W 122°41'0 0.0
2014-Oct-26 04:33N 45°32' W 122°41'0 0.0
2014-Oct-26 03:33N 45°32' W 122°41'0 0.0
2014-Oct-26 02:30N 45°32' W 122°41'0 0.0
2014-Oct-26 01:33N 45°32' W 122°41'0 0.0
2014-Oct-26 00:24N 45°32' W 122°41'0 0.0
2014-Oct-25 23:30N 45°32' W 122°41'0 0.0
2014-Oct-25 22:33N 45°32' W 122°41'0 0.0
2014-Oct-25 21:33N 45°32' W 122°41'0 0.0
2014-Oct-25 20:30N 45°32' W 122°41'0 0.0
2014-Oct-25 19:33N 45°32' W 122°41'  
2014-Oct-22 22:19N 45°39' W 122°46'2 0.1
2014-Oct-22 09:26N 45°38' W 122°44'47 8.0
2014-Oct-22 03:33N 46°15' W 123°27'1010.2
2014-Oct-22 02:33N 46°15' W 123°41'5 4.6
2014-Oct-22 01:31N 46°12' W 123°47'0 0.0
2014-Oct-22 00:31N 46°12' W 123°47'0 0.0
2014-Oct-21 23:31N 46°12' W 123°47'0 0.0
2014-Oct-21 22:31N 46°12' W 123°47'0 0.1
2014-Oct-21 21:31N 46°12' W 123°47'0 0.2
2014-Oct-21 20:31N 46°13' W 123°47'0 0.0
2014-Oct-21 19:31N 46°13' W 123°47'0 0.0
2014-Oct-21 18:31N 46°13' W 123°47'0 0.0
2014-Oct-21 17:31N 46°12' W 123°47'0 0.1
2014-Oct-21 16:31N 46°13' W 123°47'1 1.0
2014-Oct-21 15:33N 46°12' W 123°48'1010.4
2014-Oct-21 14:33N 46°15' W 124°02'1111.3
2014-Oct-21 13:33N 46°11' W 124°18'6 4.8
2014-Oct-21 12:17N 46°14' W 124°25'2 2.6
2014-Oct-21 11:33N 46°15' W 124°27'  
Track history (hours):
 
Tides and Currents Weather Stations Pressure Air Temp Water Temp Dewpoint Dewpoint Depression Visibility Wind Speed Wind Dir Waves Ship Positions

First I

Last reported at 2014-Oct-30 12:14 UTC. Time now 2014-Oct-31 21:34 UTC.
Position N 46°39' W 125°10'.

Length 190 m; draft 12.2 m.

Type: Cargo ship. MMSI: 370317000.

Date/timePositionNaut miles runAvg speedWind from/ knotsBaromVisibWave heightAir tempDewpointWater temp
2014-Oct-30 12:14N 46°39' W 125°10'710.2
2014-Oct-30 11:33N 46°35' W 125°02'1110.6
2014-Oct-30 10:33N 46°29' W 124°49'1110.8
2014-Oct-30 09:33N 46°23' W 124°36'1110.6
2014-Oct-30 08:33N 46°17' W 124°23'1010.3
2014-Oct-30 07:34N 46°11' W 124°11'8 8.1
2014-Oct-30 06:34N 46°15' W 124°01'9 9.4
2014-Oct-30 05:33N 46°12' W 123°48'1211.7
2014-Oct-30 04:33N 46°16' W 123°32'10 9.8
2014-Oct-30 03:33N 46°09' W 123°22'1110.9
2014-Oct-30 02:33N 46°11' W 123°07'1110.7
2014-Oct-30 01:33N 46°05' W 122°54'1010.0
2014-Oct-30 00:33N 45°56' W 122°48'1110.9
2014-Oct-29 23:33N 45°45' W 122°46'9 9.0
2014-Oct-29 22:33N 45°36' W 122°47'6 5.6
2014-Oct-29 21:32N 45°32' W 122°41'0 0.1
2014-Oct-29 20:23N 45°32' W 122°41'0 0.0
2014-Oct-29 19:23N 45°32' W 122°41'0 0.0
2014-Oct-29 18:29N 45°32' W 122°41'0 0.0
2014-Oct-29 17:29N 45°32' W 122°41'0 0.0
2014-Oct-29 16:29N 45°32' W 122°41'0 0.0
2014-Oct-29 15:29N 45°32' W 122°41'0 0.0
2014-Oct-29 14:29N 45°32' W 122°41'0 0.0
2014-Oct-29 13:29N 45°32' W 122°41'0 0.0
2014-Oct-29 12:29N 45°32' W 122°41'0 0.0
2014-Oct-29 11:29N 45°32' W 122°41'0 0.0
2014-Oct-29 10:32N 45°32' W 122°41'0 0.0
2014-Oct-29 09:26N 45°32' W 122°41'0 0.0
2014-Oct-29 08:32N 45°32' W 122°41'0 0.0
2014-Oct-29 07:32N 45°32' W 122°41'0 0.0
2014-Oct-29 06:32N 45°32' W 122°41'0 0.0
2014-Oct-29 05:14N 45°32' W 122°41'0 0.0
2014-Oct-29 04:32N 45°32' W 122°41'0 0.0
2014-Oct-29 03:32N 45°32' W 122°41'0 0.0
2014-Oct-29 02:32N 45°32' W 122°41'0 0.0
2014-Oct-29 01:32N 45°32' W 122°41'0 0.0
2014-Oct-28 14:21N 45°32' W 122°41'0 0.0
2014-Oct-28 13:33N 45°32' W 122°41'0 0.0
2014-Oct-28 12:33N 45°32' W 122°41'0 0.0
2014-Oct-28 11:33N 45°32' W 122°41'0 0.0
2014-Oct-28 10:27N 45°32' W 122°41'0 0.0
2014-Oct-28 09:33N 45°32' W 122°41'0 0.0
2014-Oct-28 08:33N 45°32' W 122°41'0 0.0
2014-Oct-28 07:33N 45°32' W 122°41'0 0.0
2014-Oct-28 06:33N 45°32' W 122°41'0 0.0
2014-Oct-28 05:33N 45°32' W 122°41'0 0.0
2014-Oct-28 04:30N 45°32' W 122°41'0 0.0
2014-Oct-28 03:30N 45°32' W 122°41'0 0.0
2014-Oct-28 02:33N 45°32' W 122°41'0 0.0
2014-Oct-28 01:33N 45°32' W 122°41'0 0.0
2014-Oct-28 00:33N 45°32' W 122°41'0 0.0
2014-Oct-27 23:30N 45°32' W 122°41'0 0.0
2014-Oct-27 22:33N 45°32' W 122°41'0 0.0
2014-Oct-27 21:33N 45°32' W 122°41'0 0.0
2014-Oct-27 20:33N 45°32' W 122°41'0 0.0
2014-Oct-27 19:27N 45°32' W 122°41'0 0.0
2014-Oct-27 18:33N 45°32' W 122°41'0 0.0
2014-Oct-27 17:30N 45°32' W 122°41'0 0.0
2014-Oct-27 16:33N 45°32' W 122°41'0 0.0
2014-Oct-27 15:30N 45°32' W 122°41'0 0.0
2014-Oct-27 14:30N 45°32' W 122°41'0 0.0
2014-Oct-27 13:33N 45°32' W 122°41'0 0.0
2014-Oct-27 12:33N 45°32' W 122°41'0 0.0
2014-Oct-27 11:33N 45°32' W 122°41'0 0.0
2014-Oct-27 10:33N 45°32' W 122°41'0 0.0
2014-Oct-27 09:33N 45°32' W 122°41'0 0.0
2014-Oct-27 08:33N 45°32' W 122°41'0 0.0
2014-Oct-27 07:33N 45°32' W 122°41'0 0.0
2014-Oct-27 06:33N 45°32' W 122°41'0 0.0
2014-Oct-27 05:30N 45°32' W 122°41'0 0.0
2014-Oct-27 04:33N 45°32' W 122°41'0 0.0
2014-Oct-27 03:33N 45°32' W 122°41'0 0.0
2014-Oct-27 02:33N 45°32' W 122°41'0 0.0
2014-Oct-27 01:33N 45°32' W 122°41'0 0.0
2014-Oct-27 00:33N 45°32' W 122°41'0 0.0
2014-Oct-26 23:33N 45°32' W 122°41'0 0.0
2014-Oct-26 22:33N 45°32' W 122°41'0 0.0
2014-Oct-26 21:33N 45°32' W 122°41'0 0.0
2014-Oct-26 20:33N 45°32' W 122°41'0 0.0
2014-Oct-26 19:33N 45°32' W 122°41'0 0.0
2014-Oct-26 18:30N 45°32' W 122°41'0 0.0
2014-Oct-26 17:30N 45°32' W 122°41'0 0.0
2014-Oct-26 16:33N 45°32' W 122°41'0 0.0
2014-Oct-26 15:33N 45°32' W 122°41'0 0.0
2014-Oct-26 14:33N 45°32' W 122°41'0 0.0
2014-Oct-26 13:33N 45°32' W 122°41'0 0.0
2014-Oct-26 12:30N 45°32' W 122°41'0 0.0
2014-Oct-26 11:33N 45°32' W 122°41'0 0.0
2014-Oct-26 10:33N 45°32' W 122°41'0 0.0
2014-Oct-26 09:33N 45°32' W 122°41'0 0.0
2014-Oct-26 08:33N 45°32' W 122°41'0 0.0
2014-Oct-26 07:33N 45°32' W 122°41'0 0.0
2014-Oct-26 06:33N 45°32' W 122°41'0 0.0
2014-Oct-26 05:30N 45°32' W 122°41'0 0.0
2014-Oct-26 04:33N 45°32' W 122°41'0 0.0
2014-Oct-26 03:33N 45°32' W 122°41'0 0.0
2014-Oct-26 02:30N 45°32' W 122°41'0 0.0
2014-Oct-26 01:33N 45°32' W 122°41'0 0.0
2014-Oct-26 00:24N 45°32' W 122°41'0 0.0
2014-Oct-25 23:30N 45°32' W 122°41'0 0.0
2014-Oct-25 22:33N 45°32' W 122°41'0 0.0
2014-Oct-25 21:33N 45°32' W 122°41'0 0.0
2014-Oct-25 20:30N 45°32' W 122°41'0 0.0
2014-Oct-25 19:33N 45°32' W 122°41'  
2014-Oct-22 22:19N 45°39' W 122°46'2 0.1
2014-Oct-22 09:26N 45°38' W 122°44'47 8.0
2014-Oct-22 03:33N 46°15' W 123°27'1010.2
2014-Oct-22 02:33N 46°15' W 123°41'5 4.6
2014-Oct-22 01:31N 46°12' W 123°47'0 0.0
2014-Oct-22 00:31N 46°12' W 123°47'0 0.0
2014-Oct-21 23:31N 46°12' W 123°47'0 0.0
2014-Oct-21 22:31N 46°12' W 123°47'0 0.1
2014-Oct-21 21:31N 46°12' W 123°47'0 0.2
2014-Oct-21 20:31N 46°13' W 123°47'0 0.0
2014-Oct-21 19:31N 46°13' W 123°47'0 0.0
2014-Oct-21 18:31N 46°13' W 123°47'0 0.0
2014-Oct-21 17:31N 46°12' W 123°47'0 0.1
2014-Oct-21 16:31N 46°13' W 123°47'1 1.0
2014-Oct-21 15:33N 46°12' W 123°48'1010.4
2014-Oct-21 14:33N 46°15' W 124°02'1111.3
2014-Oct-21 13:33N 46°11' W 124°18'6 4.8
2014-Oct-21 12:17N 46°14' W 124°25'2 2.6
2014-Oct-21 11:33N 46°15' W 124°27'  

Dump ship's entire track history